EN

Hourly Weather Abasnurskiy

Today, 14 June, Monday

Time Temperature Precipitation Wind Pressure Humidity
00:00 +16°C° 0.1 mm 2 mps 746 mmHg 94%
01:00 +16°C° 0 mm 2 mps 746 mmHg 95%
02:00 +16°C° 0 mm 2 mps 746 mmHg 95%
03:00 +15°C° 0 mm 2 mps 747 mmHg 96%
04:00 +16°C° 0 mm 2 mps 747 mmHg 94%
05:00 +17°C° 0 mm 2 mps 747 mmHg 92%
06:00 +18°C° 0 mm 2 mps 747 mmHg 89%
07:00 +20°C° 0 mm 3 mps 748 mmHg 82%
08:00 +21°C° 0 mm 3 mps 748 mmHg 74%
09:00 +24°C° 0 mm 3 mps 748 mmHg 66%
10:00 +25°C° 0 mm 3 mps 748 mmHg 61%
11:00 +26°C° 0 mm 3 mps 748 mmHg 57%
12:00 +27°C° 0 mm 4 mps 748 mmHg 52%
13:00 +27°C° 0 mm 3 mps 748 mmHg 52%
14:00 +27°C° 0 mm 3 mps 748 mmHg 51%
15:00 +27°C° 0 mm 3 mps 748 mmHg 51%
16:00 +26°C° 0.2 mm 3 mps 748 mmHg 59%
17:00 +25°C° 0.2 mm 2 mps 748 mmHg 67%
18:00 +23°C° 0.2 mm 1 mps 748 mmHg 75%
19:00 +22°C° 0.1 mm 1 mps 748 mmHg 78%
20:00 +21°C° 0.1 mm 1 mps 748 mmHg 81%
21:00 +20°C° 0.1 mm 1 mps 748 mmHg 84%
22:00 +20°C° 0 mm 1 mps 748 mmHg 85%
23:00 +19°C° 0 mm 1 mps 748 mmHg 87%

Tomorrow, 15 June, Tuesday

Time Temperature Precipitation Wind Pressure Humidity
00:00 +18°C° 0 mm 1 mps 748 mmHg 89%
01:00 +18°C° 0 mm 1 mps 748 mmHg 90%
02:00 +16°C° 0 mm 1 mps 748 mmHg 91%
03:00 +16°C° 0 mm 1 mps 748 mmHg 92%
04:00 +18°C° 0 mm 1 mps 748 mmHg 89%
05:00 +19°C° 0 mm 1 mps 748 mmHg 86%
06:00 +20°C° 0 mm 1 mps 748 mmHg 83%
07:00 +22°C° 0 mm 1 mps 748 mmHg 76%
08:00 +24°C° 0 mm 1 mps 748 mmHg 68%
09:00 +25°C° 0 mm 1 mps 748 mmHg 61%
10:00 +26°C° 0.2 mm 1 mps 748 mmHg 57%
11:00 +27°C° 0.2 mm 1 mps 748 mmHg 53%
12:00 +28°C° 0.2 mm 1 mps 748 mmHg 49%
13:00 +27°C° 0.1 mm 1 mps 747 mmHg 53%
14:00 +27°C° 0.1 mm 2 mps 747 mmHg 56%
15:00 +26°C° 0.1 mm 2 mps 747 mmHg 60%
16:00 +25°C° 0.4 mm 2 mps 747 mmHg 68%
17:00 +24°C° 0.4 mm 2 mps 747 mmHg 76%
18:00 +23°C° 0.4 mm 2 mps 747 mmHg 84%
19:00 +21°C° 0 mm 2 mps 747 mmHg 86%
20:00 +20°C° 0 mm 2 mps 747 mmHg 89%
21:00 +19°C° 0 mm 2 mps 746 mmHg 92%
22:00 +18°C° 0 mm 2 mps 746 mmHg 92%
23:00 +18°C° 0 mm 2 mps 746 mmHg 92%

Day after tomorrow, 16 June, Wednesday

Time Temperature Precipitation Wind Pressure Humidity
00:00 +17°C° 0 mm 2 mps 746 mmHg 93%
01:00 +17°C° 0 mm 2 mps 746 mmHg 92%
02:00 +18°C° 0 mm 1 mps 746 mmHg 90%
03:00 +18°C° 0 mm 1 mps 745 mmHg 89%
04:00 +19°C° 0 mm 1 mps 745 mmHg 86%
05:00 +20°C° 0 mm 1 mps 745 mmHg 84%
06:00 +20°C° 0 mm 2 mps 745 mmHg 81%
07:00 +23°C° 0 mm 2 mps 745 mmHg 74%
08:00 +24°C° 0 mm 2 mps 744 mmHg 67%
09:00 +26°C° 0 mm 3 mps 744 mmHg 59%
10:00 +27°C° 0 mm 3 mps 743 mmHg 56%
11:00 +28°C° 0 mm 3 mps 743 mmHg 52%
12:00 +30°C° 0 mm 2 mps 742 mmHg 49%
13:00 +30°C° 0 mm 2 mps 742 mmHg 49%
14:00 +30°C° 0 mm 3 mps 742 mmHg 50%
15:00 +30°C° 0 mm 3 mps 741 mmHg 51%
16:00 +27°C° 4.6 mm 3 mps 742 mmHg 64%
17:00 +23°C° 4.6 mm 4 mps 742 mmHg 78%
18:00 +19°C° 4.6 mm 5 mps 743 mmHg 92%
19:00 +19°C° 0.9 mm 5 mps 743 mmHg 93%
20:00 +18°C° 0.9 mm 4 mps 744 mmHg 94%
21:00 +17°C° 0.9 mm 4 mps 744 mmHg 94%
22:00 +15°C° 0 mm 4 mps 744 mmHg 94%
23:00 +14°C° 0 mm 4 mps 745 mmHg 93%

17 June, Thursday

Time Temperature Precipitation Wind Pressure Humidity
00:00 +14°C° 0 mm 4 mps 745 mmHg 92%
01:00 +13°C° 0 mm 4 mps 746 mmHg 92%
02:00 +12°C° 0 mm 4 mps 746 mmHg 92%
03:00 +11°C° 0 mm 3 mps 747 mmHg 92%
04:00 +12°C° 0 mm 3 mps 747 mmHg 88%
05:00 +12°C° 0 mm 3 mps 748 mmHg 85%
06:00 +13°C° 0 mm 3 mps 748 mmHg 81%
07:00 +15°C° 0 mm 4 mps 749 mmHg 73%
08:00 +17°C° 0 mm 4 mps 749 mmHg 64%
09:00 +19°C° 0 mm 4 mps 749 mmHg 56%
10:00 +20°C° 0 mm 4 mps 749 mmHg 52%
11:00 +20°C° 0 mm 4 mps 750 mmHg 48%
12:00 +21°C° 0 mm 4 mps 750 mmHg 44%
13:00 +21°C° 0 mm 3 mps 750 mmHg 49%
14:00 +20°C° 0 mm 3 mps 750 mmHg 54%
15:00 +19°C° 0 mm 3 mps 750 mmHg 59%
16:00 +19°C° 0 mm 3 mps 750 mmHg 61%
17:00 +19°C° 0 mm 3 mps 751 mmHg 62%
18:00 +19°C° 0 mm 3 mps 751 mmHg 64%
19:00 +17°C° 0 mm 3 mps 751 mmHg 68%
20:00 +16°C° 0 mm 2 mps 752 mmHg 71%
21:00 +14°C° 0 mm 2 mps 752 mmHg 75%
22:00 +14°C° 0 mm 2 mps 752 mmHg 77%
23:00 +12°C° 0 mm 3 mps 752 mmHg 78%

18 June, Friday

Time Temperature Precipitation Wind Pressure Humidity
00:00 +11°C° 0 mm 3 mps 753 mmHg 80%
01:00 +10°C° 0 mm 3 mps 753 mmHg 81%
02:00 +9°C° 0 mm 3 mps 754 mmHg 83%
03:00 +9°C° 0 mm 3 mps 754 mmHg 85%
04:00 +10°C° 0 mm 3 mps 754 mmHg 81%
05:00 +11°C° 0 mm 3 mps 755 mmHg 76%
06:00 +13°C° 0 mm 3 mps 755 mmHg 72%
07:00 +14°C° 0 mm 4 mps 755 mmHg 66%
08:00 +17°C° 0 mm 4 mps 755 mmHg 60%
09:00 +18°C° 0 mm 4 mps 756 mmHg 53%
10:00 +19°C° 0 mm 4 mps 756 mmHg 50%
11:00 +20°C° 0 mm 4 mps 756 mmHg 47%
12:00 +21°C° 0 mm 5 mps 756 mmHg 44%
13:00 +21°C° 0 mm 4 mps 756 mmHg 44%
14:00 +21°C° 0 mm 4 mps 756 mmHg 44%
15:00 +21°C° 0 mm 4 mps 756 mmHg 44%
16:00 +21°C° 0 mm 3 mps 756 mmHg 49%
17:00 +21°C° 0 mm 2 mps 756 mmHg 54%
18:00 +22°C° 0 mm 1 mps 756 mmHg 59%
19:00 +20°C° 0 mm 1 mps 756 mmHg 62%
20:00 +18°C° 0 mm 1 mps 756 mmHg 65%
21:00 +15°C° 0 mm 1 mps 756 mmHg 68%
22:00 +15°C° 0 mm 1 mps 756 mmHg 70%
23:00 +14°C° 0 mm 2 mps 756 mmHg 71%

19 June, Saturday

Time Temperature Precipitation Wind Pressure Humidity
00:00 +14°C° 0 mm 2 mps 756 mmHg 73%
01:00 +13°C° 0 mm 2 mps 756 mmHg 75%
02:00 +13°C° 0 mm 2 mps 756 mmHg 77%
03:00 +12°C° 0 mm 3 mps 756 mmHg 78%
04:00 +13°C° 0 mm 3 mps 756 mmHg 77%
05:00 +14°C° 0 mm 3 mps 756 mmHg 76%
06:00 +17°C° 0 mm 3 mps 756 mmHg 75%
07:00 +19°C° 0 mm 4 mps 755 mmHg 71%
08:00 +21°C° 0 mm 4 mps 755 mmHg 66%
09:00 +23°C° 0 mm 5 mps 754 mmHg 61%
10:00 +25°C° 0 mm 5 mps 754 mmHg 58%
11:00 +27°C° 0 mm 5 mps 753 mmHg 54%
12:00 +28°C° 0 mm 5 mps 753 mmHg 50%
13:00 +28°C° 0 mm 5 mps 752 mmHg 50%
14:00 +29°C° 0 mm 6 mps 752 mmHg 49%
15:00 +29°C° 0 mm 6 mps 752 mmHg 49%
16:00 +28°C° 0 mm 5 mps 752 mmHg 52%
17:00 +27°C° 0 mm 5 mps 751 mmHg 56%
18:00 +26°C° 0 mm 4 mps 751 mmHg 60%
19:00 +25°C° 0 mm 4 mps 751 mmHg 65%
20:00 +22°C° 0 mm 4 mps 751 mmHg 71%
21:00 +20°C° 0 mm 3 mps 751 mmHg 76%
22:00 +20°C° 0 mm 3 mps 751 mmHg 78%
23:00 +19°C° 0 mm 3 mps 752 mmHg 80%
Show more